EW5286 Weather Reports


Display with metric or nautical units.
time (UTC)temp
F
wind
direction
speed
MPH
gust
MPH
rain 1hr
in
rain 24hr
in
rain mn
in
humidity
%
barometer
mb
20260831140928 81 207 0.0 2.0 0.00 0.00 0.00 74 1018.5
20260831140440 80 225 1.0 2.0 0.00 0.00 0.00 75 1018.5
20260831140042 80 236 1.0 2.0 0.00 0.00 0.00 75 1016.8
20260831135921 80 236 1.0 2.0 0.00 0.00 0.00 75 1018.5
20260831135433 80 233 1.0 2.0 0.00 0.00 0.00 75 1018.4
20260831134925 79 226 1.0 4.0 0.00 0.00 0.00 75 1018.4
20260831134552 78 50 1.0 4.0 0.00 0.00 0.00 75 1016.7
20260831134426 79 235 1.0 4.0 0.00 0.00 0.00 75 1018.3
20260831133938 78 223 1.0 4.0 0.00 0.00 0.00 76 1018.2
20260831133448 78 240 2.0 3.0 0.00 0.00 0.00 76 1018.2
20260831133101 78 238 2.0 3.0 0.00 0.00 0.00 76 1016.5
20260831133001 78 237 3.0 3.0 0.00 0.00 0.00 76 1018.2
20260831132441 78 236 3.0 4.0 0.00 0.00 0.00 76 1018.1
20260831131933 78 233 3.0 4.0 0.00 0.00 0.00 76 1018.1
20260831131547 77 248 2.0 4.0 0.00 0.00 0.00 76 1016.5
20260831131441 77 239 3.0 4.0 0.00 0.00 0.00 76 1018.1
20260831130921 77 240 3.0 4.0 0.00 0.00 0.00 76 1018.0
20260831130432 77 230 3.0 4.0 0.00 0.00 0.00 76 1017.9
20260831130051 76 238 2.0 5.0 0.00 0.00 0.00 76 1016.2
20260831125928 77 233 3.0 5.0 0.00 0.00 0.00 76 1017.9
20260831125438 77 236 3.0 5.0 0.00 0.00 0.00 76 1017.8
20260831124930 76 233 4.0 5.0 0.00 0.00 0.00 76 1017.8
20260831124541 76 236 3.0 4.0 0.00 0.00 0.00 76 1016.1
20260831124502 76 238 4.0 4.0 0.00 0.00 0.00 76 1017.7
20260831123950 76 238 4.0 4.0 0.00 0.00 0.00 76 1017.7
20260831123433 76 238 4.0 4.0 0.00 0.00 0.00 75 1017.7
20260831123024 76 238 3.0 4.0 0.00 0.00 0.00 75 1016.1
20260831122923 76 238 3.0 4.0 0.00 0.00 0.00 75 1017.6
20260831122424 76 240 4.0 4.0 0.00 0.00 0.00 75 1017.6
20260831121936 76 238 4.0 4.0 0.00 0.00 0.00 75 1017.6
20260831121530 75 239 3.0 4.0 0.00 0.00 0.00 75 1015.8
20260831121426 76 239 4.0 4.0 0.00 0.00 0.00 75 1017.5
20260831120927 76 238 4.0 5.0 0.00 0.00 0.00 75 1017.4
20260831120439 76 241 4.0 5.0 0.00 0.00 0.00 74 1017.3
20260831120039 76 240 3.0 5.0 0.00 0.00 0.00 74 1015.6
20260831115951 76 238 4.0 5.0 0.00 0.00 0.00 74 1017.2
20260831115431 76 239 4.0 5.0 0.00 0.00 0.00 73 1017.2
20260831114924 76 237 4.0 5.0 0.00 0.00 0.00 74 1017.2
20260831114546 76 240 4.0 5.0 0.00 0.00 0.00 73 1015.5
20260831114425 76 238 4.0 5.0 0.00 0.00 0.00 73 1017.1
20260831113937 76 238 4.0 5.0 0.00 0.00 0.00 73 1017.1
20260831113428 76 238 4.0 5.0 0.00 0.00 0.00 73 1017.0
20260831113100 76 239 3.0 5.0 0.00 0.00 0.00 73 1015.3
20260831112925 76 240 4.0 5.0 0.00 0.00 0.00 73 1017.0
20260831112437 76 235 4.0 4.0 0.00 0.00 0.00 73 1016.9
20260831111948 76 239 4.0 4.0 0.00 0.00 0.00 72 1016.9
20260831111614 76 238 3.0 4.0 0.00 0.00 0.00 72 1015.3
20260831111428 76 238 3.0 4.0 0.00 0.00 0.00 72 1016.8
20260831110939 76 240 3.0 4.0 0.00 0.00 0.00 72 1016.8
20260831110452 77 240 4.0 4.0 0.00 0.00 0.00 71 1016.8
20260831110044 76 240 3.0 5.0 0.00 0.00 0.00 71 1015.2
20260831105928 77 240 3.0 5.0 0.00 0.00 0.00 71 1016.8
20260831105439 77 239 4.0 5.0 0.00 0.00 0.00 71 1016.7
20260831104931 77 239 4.0 6.0 0.00 0.00 0.00 71 1016.7
20260831104551 76 243 4.0 6.0 0.00 0.00 0.00 72 1015.0
20260831104431 77 239 4.0 6.0 0.00 0.00 0.00 72 1016.6
20260831103922 76 238 5.0 5.0 0.00 0.00 0.00 72 1016.7
20260831103435 76 239 4.0 4.0 0.00 0.00 0.00 72 1016.6
20260831103107 76 239 3.0 4.0 0.00 0.00 0.00 71 1015.0
20260831102936 76 240 3.0 4.0 0.00 0.00 0.00 71 1016.6
20260831102428 76 240 3.0 4.0 0.00 0.00 0.00 71 1016.5
20260831102000 76 245 3.0 4.0 0.00 0.00 0.00 71 1016.5
20260831101555 76 244 3.0 5.0 0.00 0.00 0.00 71 1014.8
20260831101427 76 249 4.0 5.0 0.00 0.00 0.00 71 1016.5
20260831100954 76 245 4.0 5.0 0.00 0.00 0.00 72 1016.4
20260831100436 76 240 4.0 4.0 0.00 0.00 0.00 72 1016.4
20260831100015 75 240 3.0 4.0 0.00 0.00 0.00 72 1014.7
20260831095926 76 240 3.0 4.0 0.00 0.00 0.00 72 1016.4
20260831095438 76 240 3.0 4.0 0.00 0.00 0.00 72 1016.4
20260831094941 76 237 4.0 4.0 0.00 0.00 0.00 73 1016.3
20260831094528 75 238 3.0 4.0 0.00 0.00 0.00 73 1014.7
20260831094430 76 239 3.0 4.0 0.00 0.00 0.00 73 1016.3
20260831093942 76 238 3.0 4.0 0.00 0.00 0.00 73 1016.3
20260831093424 76 239 3.0 4.0 0.00 0.00 0.00 72 1016.4
20260831093029 76 238 3.0 4.0 0.00 0.00 0.00 72 1014.6
20260831092954 76 239 3.0 4.0 0.00 0.00 0.00 72 1016.3
20260831092444 76 238 4.0 4.0 0.00 0.00 0.00 72 1016.3
20260831091927 76 240 4.0 4.0 0.00 0.00 0.00 72 1016.2
20260831091517 76 240 3.0 4.0 0.00 0.00 0.00 72 1014.6
20260831091440 76 238 4.0 4.0 0.00 0.00 0.00 72 1016.2
20260831090949 76 232 3.0 4.0 0.00 0.00 0.00 72 1016.2
20260831090433 76 238 3.0 4.0 0.00 0.00 0.00 72 1016.2
20260831090022 76 238 3.0 5.0 0.00 0.00 0.00 72 1014.6
20260831085921 76 238 4.0 5.0 0.00 0.00 0.00 72 1016.2
20260831085448 76 239 4.0 5.0 0.00 0.00 0.00 71 1016.2
20260831084938 77 240 4.0 4.0 0.00 0.00 0.00 71 1016.2
20260831084552 76 240 3.0 5.0 0.00 0.00 0.00 71 1014.5
20260831084450 77 240 4.0 5.0 0.00 0.00 0.00 71 1016.1
20260831083931 77 238 4.0 5.0 0.00 0.00 0.00 70 1016.1
20260831083503 77 237 4.0 5.0 0.00 0.00 0.00 70 1016.1
20260831083038 77 238 4.0 5.0 0.00 0.00 0.00 70 1014.6
20260831082923 77 240 4.0 5.0 0.00 0.00 0.00 70 1016.2
20260831082434 77 238 4.0 5.0 0.00 0.00 0.00 70 1016.1
20260831081924 77 238 4.0 4.0 0.00 0.00 0.00 70 1016.1
20260831081525 77 238 3.0 4.0 0.00 0.00 0.00 70 1014.5
20260831081434 77 238 3.0 4.0 0.00 0.00 0.00 70 1016.1
20260831080945 77 238 4.0 4.0 0.00 0.00 0.00 70 1016.1
20260831080428 77 238 4.0 4.0 0.00 0.00 0.00 70 1016.0
20260831080048 76 233 3.0 4.0 0.00 0.00 0.00 70 1014.4
20260831075940 77 238 3.0 4.0 0.00 0.00 0.00 69 1016.1
20260831075450 77 237 3.0 4.0 0.00 0.00 0.00 69 1016.0
20260831074931 77 235 3.0 4.0 0.00 0.00 0.00 69 1015.9
20260831074540 77 235 2.0 5.0 0.00 0.00 0.00 68 1014.3
20260831074442 78 236 3.0 5.0 0.00 0.00 0.00 68 1016.0
20260831073923 78 233 3.0 5.0 0.00 0.00 0.00 68 1016.0
20260831073435 78 230 3.0 6.0 0.00 0.00 0.00 67 1016.1
20260831073046 78 236 3.0 6.0 0.00 0.00 0.00 67 1014.4
20260831072942 78 236 3.0 6.0 0.00 0.00 0.00 67 1016.1
20260831072423 78 246 4.0 6.0 0.00 0.00 0.00 67 1016.1
20260831071935 78 236 4.0 6.0 0.00 0.00 0.00 67 1016.1
20260831071551 78 236 3.0 6.0 0.00 0.00 0.00 67 1014.5
20260831071435 78 224 4.0 6.0 0.00 0.00 0.00 67 1016.1
20260831070927 78 219 4.0 7.0 0.00 0.00 0.00 67 1016.2
20260831070438 79 226 4.0 8.0 0.00 0.00 0.00 66 1016.1
20260831065942 79 227 4.0 8.0 0.00 0.00 0.00 66 1016.2
20260831065427 79 243 4.0 8.0 0.00 0.00 0.00 66 1016.2
20260831064938 79 240 4.0 8.0 0.00 0.00 0.00 65 1016.1
20260831064604 79 228 4.0 9.0 0.00 0.00 0.00 65 1014.5
20260831064510 79 214 5.0 9.0 0.00 0.00 0.00 65 1016.2
20260831063930 80 243 5.0 9.0 0.00 0.00 0.00 64 1016.2
20260831063423 80 228 5.0 11.0 0.00 0.00 0.00 64 1016.2
20260831063049 79 233 5.0 11.0 0.00 0.00 0.00 64 1014.6
20260831062924 80 237 5.0 11.0 0.00 0.00 0.00 64 1016.2
20260831062434 80 229 6.0 10.0 0.00 0.00 0.00 64 1016.2
20260831061944 80 231 5.0 9.0 0.00 0.00 0.00 64 1016.2
20260831061533 79 227 6.0 9.0 0.00 0.00 0.00 64 1014.6
20260831061431 80 214 6.0 9.0 0.00 0.00 0.00 64 1016.2
20260831060933 79 215 5.0 8.0 0.00 0.00 0.00 64 1016.3
20260831060425 79 236 5.0 7.0 0.00 0.00 0.00 65 1016.2
20260831060041 78 229 4.0 6.0 0.00 0.00 0.00 66 1014.6
20260831055922 79 234 4.0 6.0 0.00 0.00 0.00 66 1016.2
20260831055434 79 210 4.0 6.0 0.00 0.00 0.00 66 1016.3
20260831054925 79 239 4.0 7.0 0.00 0.00 0.00 66 1016.3
20260831054550 78 236 3.0 7.0 0.00 0.00 0.00 66 1014.7
20260831054456 79 232 4.0 7.0 0.00 0.00 0.00 66 1016.4
20260831053946 79 241 4.0 8.0 0.00 0.00 0.00 66 1016.4
20260831053427 80 244 4.0 8.0 0.00 0.00 0.00 65 1016.4
20260831053033 79 248 4.0 9.0 0.00 0.00 0.00 64 1014.7
20260831052957 80 244 4.0 9.0 0.00 0.00 0.00 64 1016.4
20260831052447 80 250 5.0 9.0 0.00 0.00 0.00 64 1016.4
20260831051929 80 186 4.0 8.0 0.00 0.00 0.00 64 1016.4
20260831051520 80 255 4.0 8.0 0.00 0.00 0.00 64 1014.6
20260831051440 80 224 5.0 8.0 0.00 0.00 0.00 64 1016.3
20260831050946 80 236 5.0 8.0 0.00 0.00 0.00 64 1016.3
20260831050430 80 231 5.0 8.0 0.00 0.00 0.00 64 1016.3
20260831050022 79 250 4.0 8.0 0.00 0.00 0.00 65 1014.6
20260831045938 80 250 4.0 8.0 0.00 0.00 0.00 65 1016.2
20260831045447 80 248 4.0 8.0 0.00 0.00 0.00 65 1016.1
20260831044953 80 232 3.0 9.0 0.00 0.00 0.00 65 1016.1
20260831044550 79 229 4.0 9.0 0.00 0.00 0.00 65 1014.4
20260831044445 80 234 5.0 9.0 0.00 0.00 0.00 65 1016.1
20260831043925 80 238 4.0 9.0 0.00 0.00 0.00 65 1016.1
20260831043436 80 221 5.0 10.0 0.00 0.00 0.00 65 1016.1
20260831043058 79 250 4.0 10.0 0.00 0.00 0.00 65 1014.5
20260831042943 80 262 4.0 10.0 0.00 0.00 0.00 65 1016.2
20260831042452 80 269 4.0 9.0 0.00 0.00 0.00 65 1016.0
20260831041935 80 248 4.0 9.0 0.00 0.00 0.00 64 1016.0
20260831041517 80 261 3.0 8.0 0.00 0.00 0.00 64 1014.4
20260831041424 80 229 4.0 8.0 0.00 0.00 0.00 64 1016.0
20260831040935 81 204 4.0 9.0 0.00 0.00 0.00 64 1016.1
20260831040446 81 239 5.0 9.0 0.00 0.00 0.00 63 1016.1
20260831040003 81 208 3.0 9.0 0.00 0.00 0.00 63 1014.4
20260831035927 81 254 4.0 9.0 0.00 0.00 0.00 63 1016.0
20260831035437 81 262 3.0 8.0 0.00 0.00 0.00 63 1016.0
20260831034948 81 274 4.0 8.0 0.00 0.00 0.00 62 1016.0
20260831034509 81 176 4.0 8.0 0.00 0.00 0.00 62 1014.3
20260831034429 82 233 4.0 7.0 0.00 0.00 0.00 62 1015.9
20260831033941 82 261 4.0 7.0 0.00 0.00 0.00 61 1016.0
20260831033424 82 226 3.0 9.0 0.00 0.00 0.00 61 1015.9
20260831033017 82 226 4.0 9.0 0.00 0.00 0.00 60 1014.1
20260831032929 82 166 5.0 9.0 0.00 0.00 0.00 60 1015.8
20260831032441 82 220 4.0 8.0 0.00 0.00 0.00 60 1015.8
20260831031923 83 220 3.0 7.0 0.00 0.00 0.00 59 1015.8
20260831031535 82 236 2.0 7.0 0.00 0.00 0.00 59 1014.0
20260831031433 83 241 2.0 7.0 0.00 0.00 0.00 58 1015.7
20260831030936 83 253 4.0 8.0 0.00 0.00 0.00 58 1015.7
20260831030428 83 212 2.0 7.0 0.00 0.00 0.00 57 1015.6
20260831030035 83 226 2.0 8.0 0.00 0.00 0.00 57 1014.0
20260831025938 84 200 2.0 8.0 0.00 0.00 0.00 57 1015.7
20260831025440 84 206 5.0 8.0 0.00 0.00 0.00 56 1015.6
20260831024931 84 186 4.0 8.0 0.00 0.00 0.00 56 1015.6
20260831024551 84 198 3.0 8.0 0.00 0.00 0.00 56 1014.0
20260831024444 84 220 3.0 8.0 0.00 0.00 0.00 55 1015.6
20260831023944 84 193 3.0 8.0 0.00 0.00 0.00 55 1015.5
20260831023435 84 187 3.0 10.0 0.00 0.00 0.00 55 1015.5
20260831023028 84 226 3.0 10.0 0.00 0.00 0.00 55 1013.9
20260831022925 84 213 3.0 7.0 0.00 0.00 0.00 55 1015.5
20260831022436 84 176 3.0 8.0 0.00 0.00 0.00 55 1015.5
20260831021939 85 223 3.0 8.0 0.00 0.00 0.00 55 1015.4
20260831021515 84 224 2.0 7.0 0.00 0.00 0.00 55 1013.7
20260831021429 85 210 3.0 7.0 0.00 0.00 0.00 54 1015.4
20260831020941 85 255 2.0 7.0 0.00 0.00 0.00 54 1015.4
20260831020423 85 177 2.0 6.0 0.00 0.00 0.00 54 1015.4
20260831020024 85 160 1.0 8.0 0.00 0.00 0.00 54 1013.7
20260831015930 85 259 1.0 8.0 0.00 0.00 0.00 54 1015.4
20260831015432 85 220 3.0 8.0 0.00 0.00 0.00 53 1015.4
20260831014924 85 182 2.0 5.0 0.00 0.00 0.00 53 1015.2
20260831014532 85 204 1.0 5.0 0.00 0.00 0.00 53 1013.5
20260831014434 85 196 2.0 5.0 0.00 0.00 0.00 53 1015.1
20260831013937 86 240 2.0 5.0 0.00 0.00 0.00 52 1015.1
20260831013429 86 259 2.0 5.0 0.00 0.00 0.00 52 1015.0
20260831013038 85 238 1.0 6.0 0.00 0.00 0.00 52 1013.4
20260831012936 86 132 2.0 6.0 0.00 0.00 0.00 52 1015.0
20260831012437 86 185 2.0 6.0 0.00 0.00 0.00 51 1014.9
20260831011929 86 172 1.0 5.0 0.00 0.00 0.00 51 1015.0
20260831011550 86 238 1.0 5.0 0.00 0.00 0.00 51 1013.3
20260831011456 86 255 1.0 5.0 0.00 0.00 0.00 51 1015.0
20260831010947 86 188 1.0 4.0 0.00 0.00 0.00 50 1015.0
20260831010428 87 156 1.0 4.0 0.00 0.00 0.00 50 1015.0
20260831010008 86 210 0.0 3.0 0.00 0.00 0.00 49 1013.3
20260831005937 87 160 1.0 3.0 0.00 0.00 0.00 49 1014.9
20260831005428 87 257 1.0 5.0 0.00 0.00 0.00 49 1014.9
20260831004930 87 265 1.0 6.0 0.00 0.00 0.00 48 1014.8
20260831004516 87 349 0.0 6.0 0.00 0.00 0.00 48 1013.2
20260831004442 88 348 1.0 6.0 0.00 0.00 0.00 48 1014.9
20260831003923 88 172 2.0 5.0 0.00 0.00 0.00 47 1014.8
20260831003429 88 260 1.0 4.0 0.00 0.00 0.00 47 1014.8
20260831003025 88 158 0.0 4.0 0.00 0.00 0.00 46 1013.2
20260831002942 88 179 0.0 4.0 0.00 0.00 0.00 46 1014.9
20260831002431 89 236 0.0 5.0 0.00 0.00 0.00 45 1014.9
20260831001934 89 205 1.0 5.0 0.00 0.00 0.00 44 1014.8
20260831001511 89 231 0.0 4.0 0.00 0.00 0.00 43 1013.1
20260831001424 90 179 0.0 3.0 0.00 0.00 0.00 43 1014.8
20260831000936 90 221 1.0 4.0 0.00 0.00 0.00 43 1014.8
20260831000439 90 245 1.0 6.0 0.00 0.00 0.00 42 1014.8
20260831000024 90 196 2.0 6.0 0.00 0.00 0.00 42 1013.2
20260830235948 90 179 2.0 6.0 0.00 0.00 0.00 42 1014.9
20260830235437 91 225 1.0 5.0 0.00 0.00 0.00 42 1014.9
20260830234948 91 205 3.0 6.0 0.00 0.00 0.00 41 1014.9
20260830234549 91 205 2.0 6.0 0.00 0.00 0.00 41 1013.3
20260830234427 91 222 1.0 5.0 0.00 0.00 0.00 41 1015.0
20260830233939 91 224 2.0 5.0 0.00 0.00 0.00 41 1015.0
20260830233430 91 240 2.0 7.0 0.00 0.00 0.00 40 1015.1
20260830233034 91 224 2.0 7.0 0.00 0.00 0.00 40 1013.3
20260830232957 91 181 2.0 7.0 0.00 0.00 0.00 40 1015.0
20260830232447 91 179 3.0 8.0 0.00 0.00 0.00 40 1015.0
20260830231930 92 191 3.0 5.0 0.00 0.00 0.00 39 1015.0
20260830231522 91 200 2.0 5.0 0.00 0.00 0.00 38 1013.3
20260830231441 92 207 2.0 4.0 0.00 0.00 0.00 38 1015.0
20260830230920 92 268 2.0 4.0 0.00 0.00 0.00 38 1015.0
20260830230453 92 176 1.0 7.0 0.00 0.00 0.00 38 1015.0
20260830230015 91 232 3.0 7.0 0.00 0.00 0.00 38 1013.3
20260830225943 92 226 3.0 7.0 0.00 0.00 0.00 38 1015.0
20260830225432 92 188 3.0 8.0 0.00 0.00 0.00 39 1015.0
20260830224934 93 233 2.0 8.0 0.00 0.00 0.00 39 1014.9
20260830224514 92 219 1.0 3.0 0.00 0.00 0.00 39 1013.2
20260830224424 93 191 0.0 4.0 0.00 0.00 0.00 39 1014.9
20260830223935 93 216 1.0 8.0 0.00 0.00 0.00 39 1014.9
20260830223438 93 272 2.0 8.0 0.00 0.00 0.00 39 1015.0
20260830223023 92 243 3.0 7.0 0.00 0.00 0.00 38 1013.3
20260830222927 93 274 4.0 7.0 0.00 0.00 0.00 38 1015.0
20260830222430 93 169 3.0 7.0 0.00 0.00 0.00 38 1014.9
20260830221558 93 228 2.0 7.0 0.00 0.00 0.00 38 1013.3
20260830221503 93 203 4.0 7.0 0.00 0.00 0.00 38 1014.9
20260830220948 93 262 2.0 9.0 0.00 0.00 0.00 38 1014.9
20260830220430 93 259 4.0 9.0 0.00 0.00 0.00 38 1015.0
20260830220027 93 234 4.0 8.0 0.00 0.00 0.00 38 1013.4
20260830215936 94 200 3.0 8.0 0.00 0.00 0.00 38 1015.0
20260830215446 94 140 2.0 7.0 0.00 0.00 0.00 38 1015.0
20260830214927 94 290 2.0 6.0 0.00 0.00 0.00 39 1015.1
20260830214513 93 224 2.0 6.0 0.00 0.00 0.00 38 1013.4
20260830214439 94 196 3.0 8.0 0.00 0.00 0.00 38 1015.1
20260830213930 94 248 3.0 9.0 0.00 0.00 0.00 40 1015.1
20260830213500 94 190 4.0 9.0 0.00 0.00 0.00 39 1015.1
20260830213101 93 226 2.0 10.0 0.00 0.00 0.00 39 1013.5
20260830212941 94 210 4.0 10.0 0.00 0.00 0.00 39 1015.2
20260830212430 94 158 3.0 10.0 0.00 0.00 0.00 39 1015.2
20260830211943 94 137 6.0 10.0 0.00 0.00 0.00 38 1015.3
20260830211504 94 188 3.0 9.0 0.00 0.00 0.00 38 1013.7
20260830211423 94 247 3.0 9.0 0.00 0.00 0.00 38 1015.3
20260830210934 95 167 2.0 9.0 0.00 0.00 0.00 37 1015.4
20260830210446 94 266 4.0 11.0 0.00 0.00 0.00 38 1015.3
20260830210055 94 203 4.0 11.0 0.00 0.00 0.00 37 1013.7
20260830205927 94 199 3.0 8.0 0.00 0.00 0.00 37 1015.4
20260830205437 95 300 4.0 8.0 0.00 0.00 0.00 37 1015.5
20260830204948 95 250 3.0 8.0 0.00 0.00 0.00 38 1015.4
20260830204606 94 229 4.0 10.0 0.00 0.00 0.00 37 1013.9
20260830204429 95 254 4.0 10.0 0.00 0.00 0.00 38 1015.5
20260830203936 95 255 5.0 10.0 0.00 0.00 0.00 37 1015.6
20260830203447 96 212 4.0 8.0 0.00 0.00 0.00 36 1015.6
20260830203004 94 224 3.0 8.0 0.00 0.00 0.00 39 1014.0
20260830202948 95 162 3.0 8.0 0.00 0.00 0.00 39 1015.6
20260830202439 95 247 4.0 9.0 0.00 0.00 0.00 38 1015.7
20260830201931 96 179 4.0 9.0 0.00 0.00 0.00 39 1015.8
20260830201610 95 186 1.0 7.0 0.00 0.00 0.00 38 1014.2
20260830201432 95 137 3.0 7.0 0.00 0.00 0.00 39 1015.9
20260830200922 96 299 2.0 10.0 0.00 0.00 0.00 38 1015.9
20260830200433 95 259 2.0 10.0 0.00 0.00 0.00 39 1015.9
20260830200055 94 153 5.0 12.0 0.00 0.00 0.00 39 1014.3
20260830195945 95 174 4.0 12.0 0.00 0.00 0.00 39 1016.0
20260830195424 95 252 3.0 12.0 0.00 0.00 0.00 40 1016.1
20260830194935 95 198 2.0 10.0 0.00 0.00 0.00 40 1016.1
20260830194551 95 258 4.0 10.0 0.00 0.00 0.00 39 1014.5
20260830194446 95 243 5.0 10.0 0.00 0.00 0.00 39 1016.2
20260830193926 95 215 3.0 9.0 0.00 0.00 0.00 40 1016.2
20260830193438 95 284 2.0 9.0 0.00 0.00 0.00 41 1016.3
20260830193107 95 238 5.0 9.0 0.00 0.00 0.00 39 1014.7
20260830192951 96 234 4.0 6.0 0.00 0.00 0.00 39 1016.3
20260830192451 96 211 1.0 11.0 0.00 0.00 0.00 40 1016.4
20260830191921 95 229 4.0 11.0 0.00 0.00 0.00 39 1016.4
20260830191543 94 200 2.0 6.0 0.00 0.00 0.00 40 1014.8
20260830191448 95 167 2.0 5.0 0.00 0.00 0.00 40 1016.4
20260830190938 94 66 1.0 7.0 0.00 0.00 0.00 40 1016.5
20260830190447 95 199 4.0 7.0 0.00 0.00 0.00 38 1016.5
20260830190004 96 242 3.0 6.0 0.00 0.00 0.00 37 1014.9
20260830185948 96 240 3.0 6.0 0.00 0.00 0.00 39 1016.4
20260830185444 96 284 0.0 6.0 0.00 0.00 0.00 40 1016.4
20260830184926 95 229 3.0 8.0 0.00 0.00 0.00 41 1016.5
20260830184531 94 240 4.0 8.0 0.00 0.00 0.00 40 1014.9
20260830184436 95 242 4.0 8.0 0.00 0.00 0.00 40 1016.5
20260830183939 95 262 3.0 6.0 0.00 0.00 0.00 40 1016.6
20260830183430 94 197 2.0 4.0 0.00 0.00 0.00 40 1016.6
20260830183041 92 224 0.0 7.0 0.00 0.00 0.00 40 1015.1
20260830182943 93 7 1.0 7.0 0.00 0.00 0.00 40 1016.7
20260830182423 93 181 4.0 8.0 0.00 0.00 0.00 40 1016.8
20260830181935 93 231 5.0 9.0 0.00 0.00 0.00 40 1016.8
20260830181549 93 236 4.0 9.0 0.00 0.00 0.00 40 1015.3
20260830181446 93 252 5.0 9.0 0.00 0.00 0.00 41 1016.9
20260830180927 93 219 4.0 9.0 0.00 0.00 0.00 42 1016.9
20260830180455 93 240 5.0 8.0 0.00 0.00 0.00 43 1017.0
20260830180048 92 276 3.0 8.0 0.00 0.00 0.00 43 1015.4
20260830175946 92 244 4.0 8.0 0.00 0.00 0.00 42 1017.0
20260830175426 93 220 4.0 9.0 0.00 0.00 0.00 43 1017.0
20260830174937 92 216 5.0 8.0 0.00 0.00 0.00 44 1017.1
20260830174545 91 252 5.0 8.0 0.00 0.00 0.00 43 1015.5
20260830174447 92 248 5.0 8.0 0.00 0.00 0.00 43 1017.2
20260830173937 92 227 6.0 9.0 0.00 0.00 0.00 43 1017.2
20260830173507 92 160 6.0 9.0 0.00 0.00 0.00 43 1017.3
20260830173118 91 237 4.0 10.0 0.00 0.00 0.00 43 1015.7
20260830172925 91 236 6.0 10.0 0.00 0.00 0.00 42 1017.4
20260830172437 92 238 6.0 12.0 0.00 0.00 0.00 41 1017.5
20260830171949 92 259 5.0 12.0 0.00 0.00 0.00 42 1017.5
20260830171551 91 243 4.0 11.0 0.00 0.00 0.00 42 1015.9
20260830171429 92 239 5.0 11.0 0.00 0.00 0.00 42 1017.5
20260830170920 91 237 6.0 10.0 0.00 0.00 0.00 42 1017.6
20260830170432 91 253 6.0 9.0 0.00 0.00 0.00 42 1017.7
20260830170101 91 226 5.0 9.0 0.00 0.00 0.00 42 1016.1
20260830165932 91 248 5.0 9.0 0.00 0.00 0.00 43 1017.7
20260830165439 91 235 4.0 8.0 0.00 0.00 0.00 44 1017.7
20260830164928 90 237 3.0 8.0 0.00 0.00 0.00 45 1017.7
20260830164556 90 241 3.0 8.0 0.00 0.00 0.00 45 1016.2
20260830164457 90 220 4.0 8.0 0.00 0.00 0.00 45 1017.9
20260830163948 90 241 5.0 8.0 0.00 0.00 0.00 44 1017.8
20260830163431 90 245 3.0 6.0 0.00 0.00 0.00 47 1017.8
20260830163035 89 135 3.0 10.0 0.00 0.00 0.00 48 1016.2
20260830162944 89 212 4.0 10.0 0.00 0.00 0.00 47 1017.8
20260830162424 89 258 5.0 10.0 0.00 0.00 0.00 46 1017.9
20260830161937 89 235 5.0 8.0 0.00 0.00 0.00 47 1017.9
20260830161535 88 266 5.0 10.0 0.00 0.00 0.00 49 1016.3
20260830161422 88 248 5.0 10.0 0.00 0.00 0.00 49 1017.9
20260830160934 88 239 5.0 10.0 0.00 0.00 0.00 47 1017.8
20260830160437 88 194 4.0 7.0 0.00 0.00 0.00 50 1017.9
20260830160020 87 219 4.0 8.0 0.00 0.00 0.00 52 1016.4
20260830155926 88 228 3.0 8.0 0.00 0.00 0.00 54 1018.0
20260830155429 87 251 4.0 8.0 0.00 0.00 0.00 53 1018.0
20260830154941 86 237 3.0 6.0 0.00 0.00 0.00 56 1017.9
20260830154533 85 249 4.0 7.0 0.00 0.00 0.00 55 1016.5
20260830154430 85 245 4.0 7.0 0.00 0.00 0.00 54 1018.1
20260830153957 85 238 4.0 10.0 0.00 0.00 0.00 55 1018.1
20260830153448 85 230 5.0 10.0 0.00 0.00 0.00 55 1018.1
20260830153039 84 233 4.0 8.0 0.00 0.00 0.00 56 1016.6
20260830152940 84 247 5.0 8.0 0.00 0.00 0.00 56 1018.1
20260830152420 84 271 3.0 6.0 0.00 0.00 0.00 56 1018.0
20260830151932 84 245 4.0 8.0 0.00 0.00 0.00 56 1018.0
20260830151550 83 239 4.0 8.0 0.00 0.00 0.00 56 1016.5
20260830151444 84 210 4.0 8.0 0.00 0.00 0.00 56 1018.1
20260830150944 83 250 3.0 6.0 0.00 0.00 0.00 57 1018.0
20260830150436 83 239 4.0 6.0 0.00 0.00 0.00 57 1018.0
20260830150038 82 240 3.0 6.0 0.00 0.00 0.00 57 1016.4
20260830145926 83 229 3.0 5.0 0.00 0.00 0.00 57 1017.9
20260830145456 82 231 2.0 5.0 0.00 0.00 0.00 59 1018.0
20260830144938 81 252 3.0 5.0 0.00 0.00 0.00 58 1018.0
20260830144516 81 242 3.0 7.0 0.00 0.00 0.00 58 1016.5
20260830144448 81 245 3.0 7.0 0.00 0.00 0.00 58 1018.0
20260830143938 81 240 3.0 6.0 0.00 0.00 0.00 58 1018.1
20260830143445 80 241 3.0 6.0 0.00 0.00 0.00 59 1018.1
20260830143045 80 213 3.0 6.0 0.00 0.00 0.00 60 1016.7
20260830142925 80 254 3.0 6.0 0.00 0.00 0.00 60 1018.2
20260830142437 80 250 3.0 5.0 0.00 0.00 0.00 60 1018.2
20260830141928 79 232 2.0 7.0 0.00 0.00 0.00 61 1018.2
20260830141553 78 234 2.0 7.0 0.00 0.00 0.00 61 1016.7
20260830141458 79 235 3.0 7.0 0.00 0.00 0.00 62 1018.2